Find Starlink 3075

NORAD ID: 49409 Int'l Des: 2021-104 Owner: SPXS Country: US Constellation: starlink operational
LEOCIRCULAR

現在のビュー

3D地球を読み込み中...

About Starlink 3075

Starlink 3075 (NORAD 49409) is a starlink constellation satellite (v1.5) launched Nov 13, 2021 by SPXS of US. It operates in LEO, CIRCULAR orbit with a mass of 290.00 kg.

次回通過

Passes for default location (London). Set your location on the main map for personalized predictions.

高度履歴

Loading altitude history...

軌道要素

1 49409U 21104B 26263.53871364 .00000193 00000-0 17210-4 0 9998
2 49409 53.1599 59.7221 0001099 88.1052 272.0077 15.33546567268252
Epoch: Sep 20, 2026 • Age: 11 hours

現在のステータス

高度 472.4 km
遠地点 / 近地点 N/A
速度 7.63 km/s
衛星直下点 -23.72°S, 42.42°E
打ち上げ日 Nov 13, 2021
運用期間 4.8 years
タイプ internet

技術仕様

分類 Payload
質量 290.00 kg
乾燥質量 270.00 kg
長さ 0.20 m
スパン 9.00 m
形状 ? Box + pan
製造者 SPXS
バスタイプ Starlink
フェーズステータス In Orbit
所有者/国 SPXS/US

Most Searched